{"data":{"norad_id":69309,"epoch":"2026-09-19T12:23:32.971776Z","epoch_age_seconds":113959,"freshness":"FRESH","line1":"1 69309U 26119P   26262.51635384  .00017208  00000+0  53370-3 0  9997","line2":"2 69309  97.2838 287.2801 0000937 206.6998 153.4197 15.33471609 18517","mean_motion":15.33471609,"eccentricity":9.37e-5,"inclination_deg":97.2838,"raan_deg":287.2801,"arg_perigee_deg":206.6998,"mean_anomaly_deg":153.4197,"bstar":0.0005337,"rev_number":1851,"period_min":93.904575184085,"perigee_km":464.8227605457,"apogee_km":466.10525137422,"semimajor_km":6843.60100596,"source":"CELESTRAK","updated_at":"2026-09-20T09:00:44.156528Z"}}